Retour au catalogue

YAOGAN 21

ActifMilitaireSSO
NORAD 40143·PAYLOAD·🇨🇳 China

Lancé Sep 8, 2014 depuis Taiyuan Satellite Launch Center

Loading…

Prochains Passages (prochaines 24 heures)

TLE

FraisSource: Space-Track

Époque: Sep 14, 2026, 14:47 UTC

1 40143U 14053A   26257.61614353  .00003640  00000-0  13833-3 0  9990
2 40143  97.1399 294.0423 0009205 127.0111 233.1973 15.27363944668603

Suivez YAOGAN 21 en temps réel avec AllMySat

Download on the App Store